| time (UTC) | temp F | wind direction | speed MPH | gust MPH | rain 1hr in | rain 24hr in | rain mn in | humidity % | barometer mb |
| 20260507171646 | 61 | 138 | 4.0 | 7.0 | 0.00 | 0.00 | 0.00 | 43 | 1011.3 |
| 20260507171144 | 62 | 126 | 7.0 | 8.0 | 0.00 | 0.00 | 0.00 | 42 | 1011.7 |
| 20260507170641 | 60 | 221 | 2.0 | 6.0 | 0.00 | 0.00 | 0.00 | 47 | 1011.6 |
| 20260507170138 | 62 | 263 | 6.0 | 11.0 | 0.00 | 0.00 | 0.00 | 46 | 1011.7 |
| 20260507165633 | 61 | 197 | 6.0 | 8.0 | 0.00 | 0.00 | 0.00 | 46 | 1011.7 |
| 20260507165130 | 60 | 260 | 9.0 | 15.0 | 0.00 | 0.00 | 0.00 | 46 | 1011.9 |
| 20260507164626 | 60 | 239 | 4.0 | 10.0 | 0.00 | 0.00 | 0.00 | 42 | 1011.9 |
| 20260507164123 | 60 | 195 | 9.0 | 14.0 | 0.00 | 0.00 | 0.00 | 45 | 1011.8 |
| 20260507163620 | 61 | 241 | 9.0 | 13.0 | 0.00 | 0.00 | 0.00 | 46 | 1011.9 |
| 20260507163119 | 60 | 258 | 8.0 | 10.0 | 0.00 | 0.00 | 0.00 | 47 | 1012.0 |
| 20260507162614 | 60 | 246 | 9.0 | 10.0 | 0.00 | 0.00 | 0.00 | 50 | 1012.0 |
| 20260507162111 | 60 | 233 | 9.0 | 13.0 | 0.00 | 0.00 | 0.00 | 46 | 1012.1 |
| 20260507161607 | 60 | 216 | 8.0 | 10.0 | 0.00 | 0.00 | 0.00 | 45 | 1012.2 |
| 20260507161103 | 58 | 215 | 8.0 | 9.0 | 0.00 | 0.00 | 0.00 | 47 | 1012.3 |
| 20260507160600 | 60 | 237 | 11.0 | 14.0 | 0.00 | 0.00 | 0.00 | 47 | 1012.5 |
| 20260507160056 | 59 | 223 | 10.0 | 11.0 | 0.00 | 0.00 | 0.00 | 48 | 1012.7 |
| 20260507155551 | 59 | 222 | 8.0 | 14.0 | 0.00 | 0.00 | 0.00 | 47 | 1012.7 |
| 20260507155049 | 59 | 231 | 11.0 | 16.0 | 0.00 | 0.00 | 0.00 | 44 | 1012.6 |
| 20260507154545 | 59 | 192 | 0.0 | 6.0 | 0.00 | 0.00 | 0.00 | 47 | 1012.4 |
| 20260507154043 | 59 | 222 | 5.0 | 7.0 | 0.00 | 0.00 | 0.00 | 50 | 1012.6 |
| 20260507153539 | 59 | 305 | 3.0 | 7.0 | 0.00 | 0.00 | 0.00 | 50 | 1012.6 |
| 20260507153035 | 58 | 241 | 7.0 | 8.0 | 0.00 | 0.00 | 0.00 | 50 | 1012.5 |
| 20260507152531 | 58 | 260 | 9.0 | 11.0 | 0.00 | 0.00 | 0.00 | 52 | 1012.6 |
| 20260507152028 | 57 | 241 | 10.0 | 15.0 | 0.00 | 0.00 | 0.00 | 50 | 1012.7 |
| 20260507151524 | 58 | 244 | 11.0 | 13.0 | 0.00 | 0.00 | 0.00 | 48 | 1012.9 |
| 20260507151021 | 58 | 207 | 5.0 | 13.0 | 0.00 | 0.00 | 0.00 | 49 | 1012.9 |
| 20260507150518 | 57 | 252 | 7.0 | 9.0 | 0.00 | 0.00 | 0.00 | 52 | 1013.0 |
| 20260507150015 | 58 | 253 | 7.0 | 11.0 | 0.00 | 0.00 | 0.00 | 51 | 1013.0 |
| 20260507145510 | 56 | 247 | 12.0 | 14.0 | 0.00 | 0.00 | 0.00 | 51 | 1013.4 |
| 20260507145008 | 56 | 247 | 8.0 | 13.0 | 0.00 | 0.00 | 0.00 | 52 | 1013.3 |
| 20260507144504 | 56 | 253 | 12.0 | 16.0 | 0.00 | 0.00 | 0.00 | 52 | 1013.6 |
| 20260507144001 | 57 | 254 | 5.0 | 8.0 | 0.00 | 0.00 | 0.00 | 54 | 1013.4 |
| 20260507143459 | 57 | 255 | 3.0 | 10.0 | 0.00 | 0.00 | 0.00 | 54 | 1013.6 |
| 20260507142955 | 57 | 192 | 4.0 | 9.0 | 0.00 | 0.00 | 0.00 | 49 | 1013.6 |
| 20260507142451 | 56 | 236 | 8.0 | 13.0 | 0.00 | 0.00 | 0.00 | 51 | 1013.5 |
| 20260507141948 | 56 | 241 | 4.0 | 9.0 | 0.00 | 0.00 | 0.00 | 50 | 1013.6 |
| 20260507141444 | 55 | 218 | 5.0 | 7.0 | 0.00 | 0.00 | 0.00 | 51 | 1013.8 |
| 20260507140941 | 55 | 217 | 4.0 | 10.0 | 0.00 | 0.00 | 0.00 | 51 | 1013.9 |
| 20260507140438 | 55 | 232 | 7.0 | 9.0 | 0.00 | 0.00 | 0.00 | 52 | 1013.8 |
| 20260507135936 | 55 | 231 | 8.0 | 11.0 | 0.00 | 0.00 | 0.00 | 52 | 1014.0 |
| 20260507135432 | 55 | 179 | 6.0 | 14.0 | 0.00 | 0.00 | 0.00 | 53 | 1013.8 |
| 20260507134930 | 55 | 214 | 2.0 | 8.0 | 0.00 | 0.00 | 0.00 | 53 | 1014.1 |
| 20260507134426 | 55 | 214 | 10.0 | 11.0 | 0.00 | 0.00 | 0.00 | 54 | 1014.2 |
| 20260507133922 | 54 | 186 | 7.0 | 13.0 | 0.00 | 0.00 | 0.00 | 51 | 1014.1 |
| 20260507133418 | 55 | 233 | 7.0 | 11.0 | 0.00 | 0.00 | 0.00 | 55 | 1014.2 |
| 20260507132911 | 55 | 218 | 7.0 | 8.0 | 0.00 | 0.00 | 0.00 | 54 | 1014.1 |
| 20260507132407 | 54 | 212 | 11.0 | 14.0 | 0.00 | 0.00 | 0.00 | 54 | 1014.3 |
| 20260507131905 | 54 | 258 | 10.0 | 15.0 | 0.00 | 0.00 | 0.00 | 53 | 1014.2 |
| 20260507131400 | 53 | 227 | 7.0 | 14.0 | 0.00 | 0.00 | 0.00 | 57 | 1014.1 |
| 20260507130857 | 53 | 238 | 9.0 | 11.0 | 0.00 | 0.00 | 0.00 | 57 | 1013.9 |
| 20260507130354 | 53 | 244 | 7.0 | 8.0 | 0.00 | 0.00 | 0.00 | 59 | 1014.3 |
| 20260507125853 | 53 | 192 | 4.0 | 7.0 | 0.00 | 0.00 | 0.00 | 58 | 1014.3 |
| 20260507125350 | 53 | 218 | 8.0 | 11.0 | 0.00 | 0.00 | 0.00 | 56 | 1014.1 |
| 20260507124848 | 53 | 222 | 3.0 | 7.0 | 0.00 | 0.00 | 0.00 | 59 | 1014.0 |
| 20260507124343 | 53 | 213 | 5.0 | 8.0 | 0.00 | 0.00 | 0.00 | 58 | 1014.1 |
| 20260507123842 | 53 | 211 | 6.0 | 10.0 | 0.00 | 0.00 | 0.00 | 57 | 1014.1 |
| 20260507123339 | 53 | 247 | 7.0 | 10.0 | 0.00 | 0.00 | 0.00 | 59 | 1014.0 |
| 20260507122836 | 52 | 247 | 5.0 | 7.0 | 0.00 | 0.00 | 0.00 | 60 | 1014.1 |
| 20260507122331 | 52 | 215 | 4.0 | 6.0 | 0.00 | 0.00 | 0.00 | 61 | 1014.1 |
| 20260507121827 | 52 | 235 | 2.0 | 7.0 | 0.00 | 0.00 | 0.00 | 60 | 1014.0 |
| 20260507121323 | 52 | 225 | 2.0 | 4.0 | 0.00 | 0.00 | 0.00 | 63 | 1014.1 |
| 20260507120820 | 52 | 229 | 5.0 | 6.0 | 0.00 | 0.00 | 0.00 | 64 | 1013.8 |
| 20260507120316 | 52 | 213 | 5.0 | 7.0 | 0.00 | 0.00 | 0.00 | 63 | 1013.7 |
| 20260507115812 | 52 | 230 | 2.0 | 4.0 | 0.00 | 0.00 | 0.00 | 65 | 1013.9 |
| 20260507115308 | 52 | 205 | 3.0 | 4.0 | 0.00 | 0.00 | 0.00 | 65 | 1013.8 |
| 20260507114804 | 52 | 222 | 3.0 | 3.0 | 0.00 | 0.00 | 0.00 | 69 | 1013.8 |
| 20260507114301 | 52 | 222 | 3.0 | 3.0 | 0.00 | 0.00 | 0.00 | 66 | 1013.7 |
| 20260507113800 | 51 | 218 | 3.0 | 4.0 | 0.00 | 0.00 | 0.00 | 66 | 1013.7 |
| 20260507113256 | 51 | 230 | 2.0 | 6.0 | 0.00 | 0.00 | 0.00 | 68 | 1013.7 |
| 20260507112754 | 51 | 233 | 4.0 | 4.0 | 0.00 | 0.00 | 0.00 | 67 | 1013.7 |
| 20260507112251 | 51 | 246 | 4.0 | 4.0 | 0.00 | 0.00 | 0.00 | 67 | 1013.6 |
| 20260507111749 | 51 | 236 | 2.0 | 3.0 | 0.00 | 0.00 | 0.00 | 67 | 1014.0 |
| 20260507111244 | 51 | 189 | 1.0 | 2.0 | 0.00 | 0.00 | 0.00 | 67 | 1013.8 |
| 20260507110740 | 51 | 218 | 2.0 | 2.0 | 0.00 | 0.00 | 0.00 | 65 | 1013.8 |
| 20260507110237 | 51 | 231 | 1.0 | 2.0 | 0.00 | 0.00 | 0.00 | 66 | 1013.9 |
| 20260507105734 | 51 | 248 | 1.0 | 2.0 | 0.00 | 0.00 | 0.00 | 67 | 1013.6 |
| 20260507105230 | 51 | 215 | 1.0 | 1.0 | 0.00 | 0.00 | 0.00 | 66 | 1013.9 |
| 20260507104727 | 51 | 264 | 1.0 | 2.0 | 0.00 | 0.00 | 0.00 | 67 | 1013.4 |
| 20260507104224 | 51 | 258 | 3.0 | 3.0 | 0.00 | 0.00 | 0.00 | 65 | 1013.3 |
| 20260507103720 | 51 | 223 | 2.0 | 6.0 | 0.00 | 0.00 | 0.00 | 67 | 1013.4 |
| 20260507103216 | 51 | 208 | 3.0 | 4.0 | 0.00 | 0.00 | 0.00 | 67 | 1013.3 |
| 20260507102713 | 52 | 238 | 3.0 | 6.0 | 0.00 | 0.00 | 0.00 | 67 | 1013.1 |
| 20260507102209 | 51 | 254 | 4.0 | 4.0 | 0.00 | 0.00 | 0.00 | 69 | 1013.0 |
| 20260507101705 | 52 | 231 | 4.0 | 6.0 | 0.00 | 0.00 | 0.00 | 67 | 1013.0 |
| 20260507101201 | 52 | 210 | 5.0 | 7.0 | 0.00 | 0.00 | 0.00 | 67 | 1013.2 |
| 20260507100658 | 52 | 233 | 5.0 | 8.0 | 0.00 | 0.00 | 0.00 | 68 | 1012.9 |
| 20260507100157 | 52 | 231 | 5.0 | 6.0 | 0.00 | 0.00 | 0.00 | 69 | 1013.1 |
| 20260507095654 | 52 | 235 | 4.0 | 6.0 | 0.00 | 0.00 | 0.00 | 69 | 1012.8 |
| 20260507095151 | 52 | 244 | 3.0 | 4.0 | 0.00 | 0.00 | 0.00 | 69 | 1012.8 |
| 20260507094647 | 52 | 231 | 3.0 | 4.0 | 0.00 | 0.00 | 0.00 | 69 | 1012.8 |
| 20260507094144 | 52 | 237 | 2.0 | 4.0 | 0.00 | 0.00 | 0.00 | 70 | 1012.9 |
| 20260507093641 | 52 | 231 | 4.0 | 8.0 | 0.00 | 0.00 | 0.00 | 68 | 1012.5 |
| 20260507093141 | 52 | 234 | 5.0 | 6.0 | 0.00 | 0.00 | 0.00 | 69 | 1012.4 |
| 20260507092636 | 52 | 248 | 4.0 | 8.0 | 0.00 | 0.00 | 0.00 | 70 | 1012.8 |
| 20260507092133 | 52 | 247 | 3.0 | 7.0 | 0.00 | 0.00 | 0.00 | 71 | 1012.7 |
| 20260507091629 | 53 | 259 | 3.0 | 8.0 | 0.00 | 0.00 | 0.00 | 72 | 1012.8 |
| 20260507091125 | 53 | 259 | 3.0 | 8.0 | 0.00 | 0.00 | 0.00 | 72 | 1012.8 |
| 20260507090621 | 53 | 239 | 3.0 | 4.0 | 0.00 | 0.00 | 0.00 | 74 | 1012.9 |
| 20260507090119 | 53 | 249 | 4.0 | 8.0 | 0.00 | 0.00 | 0.00 | 73 | 1012.8 |
| 20260507085615 | 53 | 211 | 6.0 | 8.0 | 0.00 | 0.00 | 0.00 | 72 | 1012.9 |
| 20260507085112 | 53 | 218 | 7.0 | 8.0 | 0.00 | 0.00 | 0.00 | 72 | 1012.9 |
| 20260507084609 | 53 | 242 | 4.0 | 4.0 | 0.00 | 0.00 | 0.00 | 74 | 1013.1 |
| 20260507084106 | 53 | 247 | 6.0 | 8.0 | 0.00 | 0.00 | 0.00 | 73 | 1012.8 |
| 20260507083602 | 53 | 223 | 4.0 | 6.0 | 0.00 | 0.00 | 0.00 | 73 | 1012.7 |
| 20260507083100 | 53 | 230 | 3.0 | 7.0 | 0.00 | 0.00 | 0.00 | 72 | 1012.9 |
| 20260507082555 | 53 | 221 | 4.0 | 6.0 | 0.00 | 0.00 | 0.00 | 73 | 1012.7 |
| 20260507082052 | 53 | 227 | 5.0 | 8.0 | 0.00 | 0.00 | 0.00 | 71 | 1012.5 |
| 20260507081548 | 53 | 214 | 4.0 | 7.0 | 0.00 | 0.00 | 0.00 | 72 | 1012.6 |
| 20260507081046 | 53 | 210 | 4.0 | 7.0 | 0.00 | 0.00 | 0.00 | 73 | 1012.5 |
| 20260507080542 | 53 | 216 | 4.0 | 9.0 | 0.00 | 0.00 | 0.00 | 73 | 1012.4 |
| 20260507080038 | 53 | 230 | 6.0 | 8.0 | 0.00 | 0.00 | 0.00 | 74 | 1012.4 |
| 20260507075533 | 53 | 242 | 6.0 | 8.0 | 0.00 | 0.00 | 0.00 | 75 | 1012.3 |
| 20260507075030 | 53 | 249 | 6.0 | 8.0 | 0.00 | 0.00 | 0.00 | 74 | 1012.1 |
| 20260507074526 | 53 | 212 | 5.0 | 8.0 | 0.00 | 0.00 | 0.00 | 75 | 1012.1 |
| 20260507074025 | 53 | 250 | 5.0 | 8.0 | 0.00 | 0.00 | 0.00 | 76 | 1012.1 |
| 20260507073521 | 53 | 223 | 8.0 | 10.0 | 0.00 | 0.00 | 0.00 | 76 | 1011.9 |
| 20260507073017 | 54 | 235 | 10.0 | 13.0 | 0.00 | 0.00 | 0.00 | 75 | 1012.0 |
| 20260507072515 | 54 | 228 | 6.0 | 8.0 | 0.00 | 0.00 | 0.00 | 76 | 1012.1 |
| 20260507072012 | 54 | 230 | 7.0 | 8.0 | 0.00 | 0.00 | 0.00 | 75 | 1011.9 |
| 20260507071509 | 54 | 222 | 6.0 | 11.0 | 0.00 | 0.00 | 0.00 | 76 | 1011.9 |
| 20260507071006 | 54 | 199 | 5.0 | 10.0 | 0.00 | 0.00 | 0.00 | 76 | 1012.1 |
| 20260507070503 | 54 | 229 | 7.0 | 8.0 | 0.00 | 0.00 | 0.00 | 76 | 1012.2 |
| 20260507070000 | 54 | 239 | 7.0 | 8.0 | 0.00 | 0.00 | 0.00 | 76 | 1012.2 |
| 20260507065456 | 54 | 236 | 9.0 | 11.0 | 0.00 | 0.00 | 0.00 | 76 | 1012.1 |
| 20260507064953 | 54 | 256 | 10.0 | 11.0 | 0.00 | 0.00 | 0.00 | 76 | 1012.3 |
| 20260507064452 | 54 | 246 | 6.0 | 8.0 | 0.00 | 0.00 | 0.00 | 78 | 1012.5 |
| 20260507063949 | 54 | 203 | 6.0 | 7.0 | 0.00 | 0.00 | 0.00 | 76 | 1012.6 |
| 20260507063446 | 54 | 212 | 5.0 | 6.0 | 0.00 | 0.00 | 0.00 | 78 | 1012.6 |
| 20260507062943 | 54 | 247 | 4.0 | 6.0 | 0.00 | 0.00 | 0.00 | 80 | 1012.6 |
| 20260507062440 | 54 | 246 | 6.0 | 6.0 | 0.00 | 0.00 | 0.00 | 80 | 1012.5 |
| 20260507061937 | 54 | 242 | 4.0 | 7.0 | 0.00 | 0.00 | 0.00 | 78 | 1012.6 |
| 20260507061435 | 54 | 266 | 3.0 | 6.0 | 0.00 | 0.00 | 0.00 | 79 | 1012.8 |
| 20260507060934 | 54 | 210 | 3.0 | 7.0 | 0.00 | 0.00 | 0.00 | 78 | 1012.8 |
| 20260507060430 | 55 | 184 | 4.0 | 6.0 | 0.00 | 0.00 | 0.00 | 78 | 1012.9 |
| 20260507055927 | 55 | 224 | 4.0 | 7.0 | 0.00 | 0.00 | 0.00 | 77 | 1013.1 |
| 20260507055422 | 55 | 195 | 2.0 | 7.0 | 0.00 | 0.00 | 0.00 | 78 | 1012.9 |
| 20260507054919 | 55 | 188 | 3.0 | 6.0 | 0.00 | 0.00 | 0.00 | 78 | 1012.8 |
| 20260507054415 | 55 | 179 | 7.0 | 8.0 | 0.00 | 0.00 | 0.00 | 77 | 1012.6 |
| 20260507053913 | 55 | 213 | 4.0 | 4.0 | 0.00 | 0.00 | 0.00 | 79 | 1012.6 |
| 20260507053410 | 55 | 243 | 5.0 | 8.0 | 0.00 | 0.00 | 0.00 | 79 | 1012.4 |
| 20260507052909 | 55 | 241 | 7.0 | 15.0 | 0.00 | 0.00 | 0.00 | 78 | 1012.3 |
| 20260507052406 | 55 | 214 | 6.0 | 8.0 | 0.00 | 0.00 | 0.00 | 79 | 1012.3 |
| 20260507051903 | 55 | 240 | 7.0 | 9.0 | 0.00 | 0.00 | 0.00 | 80 | 1012.3 |
| 20260507051400 | 55 | 245 | 8.0 | 9.0 | 0.00 | 0.00 | 0.00 | 79 | 1012.1 |
| 20260507050857 | 55 | 189 | 3.0 | 9.0 | 0.00 | 0.00 | 0.00 | 81 | 1012.5 |
| 20260507050353 | 55 | 221 | 3.0 | 8.0 | 0.00 | 0.00 | 0.00 | 82 | 1012.5 |
| 20260507045850 | 55 | 220 | 4.0 | 7.0 | 0.00 | 0.00 | 0.00 | 81 | 1012.2 |
| 20260507045347 | 55 | 242 | 6.0 | 11.0 | 0.00 | 0.00 | 0.00 | 82 | 1012.4 |
| 20260507044845 | 55 | 225 | 5.0 | 7.0 | 0.00 | 0.00 | 0.00 | 82 | 1012.2 |
| 20260507044341 | 55 | 241 | 4.0 | 8.0 | 0.00 | 0.00 | 0.00 | 82 | 1012.4 |
| 20260507043836 | 55 | 250 | 8.0 | 9.0 | 0.00 | 0.00 | 0.00 | 82 | 1012.4 |
| 20260507043333 | 55 | 201 | 6.0 | 10.0 | 0.00 | 0.00 | 0.00 | 82 | 1012.2 |
| 20260507042830 | 55 | 232 | 8.0 | 10.0 | 0.00 | 0.00 | 0.00 | 83 | 1011.7 |
| 20260507042325 | 55 | 238 | 6.0 | 8.0 | 0.00 | 0.00 | 0.00 | 83 | 1011.9 |
| 20260507041823 | 55 | 226 | 4.0 | 6.0 | 0.00 | 0.00 | 0.00 | 82 | 1012.0 |
| 20260507041319 | 55 | 220 | 2.0 | 10.0 | 0.00 | 0.00 | 0.00 | 83 | 1012.4 |
| 20260507040816 | 55 | 182 | 5.0 | 9.0 | 0.00 | 0.00 | 0.00 | 83 | 1012.3 |
| 20260507040312 | 55 | 204 | 4.0 | 8.0 | 0.00 | 0.00 | 0.00 | 83 | 1012.4 |
| 20260507035808 | 56 | 217 | 5.0 | 8.0 | 0.00 | 0.11 | 0.11 | 82 | 1012.7 |
| 20260507035306 | 55 | 226 | 6.0 | 7.0 | 0.00 | 0.11 | 0.11 | 83 | 1012.5 |
| 20260507034802 | 55 | 218 | 2.0 | 6.0 | 0.00 | 0.11 | 0.11 | 84 | 1012.4 |
| 20260507034258 | 55 | 244 | 2.0 | 4.0 | 0.00 | 0.11 | 0.11 | 84 | 1012.4 |
| 20260507033757 | 55 | 222 | 4.0 | 8.0 | 0.00 | 0.11 | 0.11 | 83 | 1012.3 |
| 20260507033254 | 55 | 223 | 6.0 | 7.0 | 0.00 | 0.11 | 0.11 | 84 | 1012.2 |
| 20260507032751 | 56 | 234 | 7.0 | 10.0 | 0.00 | 0.11 | 0.11 | 84 | 1012.3 |
| 20260507032247 | 56 | 205 | 7.0 | 11.0 | 0.00 | 0.11 | 0.11 | 85 | 1012.3 |
| 20260507031743 | 56 | 238 | 8.0 | 10.0 | 0.00 | 0.11 | 0.11 | 85 | 1012.6 |
| 20260507031240 | 56 | 244 | 9.0 | 10.0 | 0.00 | 0.11 | 0.11 | 86 | 1012.5 |
| 20260507030737 | 56 | 245 | 8.0 | 11.0 | 0.00 | 0.11 | 0.11 | 86 | 1012.3 |
| 20260507030235 | 56 | 228 | 7.0 | 10.0 | 0.00 | 0.11 | 0.11 | 86 | 1012.5 |
| 20260507025732 | 56 | 226 | 10.0 | 11.0 | 0.00 | 0.11 | 0.11 | 85 | 1012.5 |
| 20260507025228 | 56 | 229 | 9.0 | 14.0 | 0.00 | 0.11 | 0.11 | 85 | 1012.3 |
| 20260507024727 | 57 | 234 | 6.0 | 7.0 | 0.00 | 0.11 | 0.11 | 86 | 1012.2 |
| 20260507024224 | 57 | 246 | 6.0 | 8.0 | 0.00 | 0.11 | 0.11 | 85 | 1011.8 |
| 20260507023719 | 57 | 233 | 8.0 | 11.0 | 0.00 | 0.11 | 0.11 | 84 | 1011.9 |
| 20260507023216 | 57 | 260 | 5.0 | 11.0 | 0.00 | 0.11 | 0.11 | 84 | 1011.9 |
| 20260507022714 | 57 | 241 | 7.0 | 9.0 | 0.00 | 0.11 | 0.11 | 84 | 1012.0 |
| 20260507022209 | 57 | 223 | 8.0 | 11.0 | 0.00 | 0.11 | 0.11 | 83 | 1012.0 |
| 20260507021706 | 58 | 228 | 10.0 | 11.0 | 0.00 | 0.11 | 0.11 | 83 | 1011.8 |
| 20260507021201 | 58 | 250 | 9.0 | 10.0 | 0.00 | 0.11 | 0.11 | 83 | 1011.7 |
| 20260507020700 | 58 | 246 | 6.0 | 10.0 | 0.00 | 0.11 | 0.11 | 83 | 1011.9 |
| 20260507020156 | 59 | 231 | 6.0 | 7.0 | 0.00 | 0.11 | 0.11 | 83 | 1011.8 |
| 20260507015654 | 59 | 235 | 4.0 | 7.0 | 0.00 | 0.11 | 0.11 | 81 | 1011.7 |
| 20260507015151 | 59 | 221 | 3.0 | 6.0 | 0.00 | 0.11 | 0.11 | 81 | 1011.4 |
| 20260507014647 | 59 | 236 | 3.0 | 6.0 | 0.00 | 0.11 | 0.11 | 81 | 1011.6 |
| 20260507014143 | 59 | 248 | 3.0 | 8.0 | 0.00 | 0.11 | 0.11 | 81 | 1011.6 |
| 20260507013641 | 59 | 249 | 8.0 | 11.0 | 0.00 | 0.11 | 0.11 | 81 | 1011.8 |
| 20260507013137 | 60 | 249 | 9.0 | 11.0 | 0.00 | 0.11 | 0.11 | 81 | 1011.8 |
| 20260507012635 | 60 | 222 | 6.0 | 9.0 | 0.00 | 0.11 | 0.11 | 83 | 1011.6 |
| 20260507012130 | 60 | 212 | 5.0 | 7.0 | 0.00 | 0.11 | 0.11 | 82 | 1011.2 |
| 20260507011629 | 60 | 202 | 3.0 | 6.0 | 0.00 | 0.11 | 0.11 | 82 | 1011.3 |
| 20260507011125 | 60 | 227 | 5.0 | 7.0 | 0.00 | 0.11 | 0.11 | 82 | 1011.2 |
| 20260507010620 | 61 | 251 | 4.0 | 7.0 | 0.00 | 0.11 | 0.11 | 82 | 1011.3 |
| 20260507010115 | 61 | 224 | 5.0 | 6.0 | 0.00 | 0.11 | 0.11 | 84 | 1011.1 |
| 20260507005613 | 61 | 251 | 6.0 | 7.0 | 0.00 | 0.11 | 0.11 | 83 | 1011.6 |
| 20260507005109 | 62 | 245 | 6.0 | 7.0 | 0.00 | 0.11 | 0.11 | 82 | 1011.6 |
| 20260507004606 | 62 | 212 | 6.0 | 9.0 | 0.00 | 0.11 | 0.11 | 81 | 1011.6 |
| 20260507004104 | 62 | 220 | 6.0 | 8.0 | 0.00 | 0.11 | 0.11 | 83 | 1011.5 |
| 20260507003559 | 62 | 228 | 4.0 | 7.0 | 0.00 | 0.11 | 0.11 | 84 | 1011.6 |
| 20260507003055 | 62 | 258 | 2.0 | 6.0 | 0.00 | 0.11 | 0.11 | 86 | 1011.4 |
| 20260507002551 | 62 | 235 | 2.0 | 4.0 | 0.00 | 0.11 | 0.11 | 86 | 1011.2 |
| 20260507002047 | 62 | 269 | 4.0 | 4.0 | 0.00 | 0.11 | 0.11 | 86 | 1011.2 |
| 20260507001544 | 62 | 203 | 4.0 | 6.0 | 0.00 | 0.11 | 0.11 | 87 | 1011.3 |
| 20260507001042 | 62 | 182 | 5.0 | 7.0 | 0.00 | 0.11 | 0.11 | 87 | 1011.0 |
| 20260507000538 | 63 | 221 | 4.0 | 6.0 | 0.00 | 0.11 | 0.11 | 89 | 1011.0 |
| 20260507000033 | 63 | 188 | 5.0 | 7.0 | 0.00 | 0.11 | 0.11 | 90 | 1011.1 |
| 20260506235531 | 63 | 219 | 2.0 | 3.0 | 0.00 | 0.11 | 0.11 | 90 | 1010.7 |
| 20260506235026 | 63 | 233 | 3.0 | 3.0 | 0.00 | 0.11 | 0.11 | 90 | 1010.4 |
| 20260506234525 | 64 | 209 | 4.0 | 4.0 | 0.00 | 0.11 | 0.11 | 88 | 1010.5 |
| 20260506234021 | 64 | 185 | 4.0 | 4.0 | 0.00 | 0.11 | 0.11 | 88 | 1010.5 |
| 20260506233518 | 64 | 243 | 3.0 | 4.0 | 0.00 | 0.11 | 0.11 | 88 | 1010.2 |
| 20260506233015 | 64 | 250 | 1.0 | 3.0 | 0.00 | 0.11 | 0.11 | 87 | 1009.9 |
| 20260506232511 | 64 | 232 | 3.0 | 4.0 | 0.00 | 0.11 | 0.11 | 85 | 1009.9 |
| 20260506232007 | 64 | 209 | 4.0 | 6.0 | 0.00 | 0.11 | 0.11 | 85 | 1009.9 |
| 20260506231504 | 65 | 198 | 6.0 | 7.0 | 0.00 | 0.11 | 0.11 | 84 | 1009.8 |
| 20260506231002 | 65 | 236 | 3.0 | 6.0 | 0.00 | 0.11 | 0.11 | 84 | 1009.7 |
| 20260506230458 | 65 | 163 | 6.0 | 8.0 | 0.00 | 0.11 | 0.11 | 83 | 1009.7 |
| 20260506225955 | 65 | 187 | 3.0 | 4.0 | 0.00 | 0.11 | 0.11 | 84 | 1009.8 |
| 20260506225452 | 65 | 113 | 5.0 | 7.0 | 0.00 | 0.11 | 0.11 | 84 | 1009.9 |
| 20260506224948 | 65 | 153 | 6.0 | 8.0 | 0.00 | 0.11 | 0.11 | 84 | 1009.7 |
| 20260506224446 | 65 | 194 | 6.0 | 11.0 | 0.00 | 0.11 | 0.11 | 85 | 1010.0 |
| 20260506223942 | 65 | 235 | 6.0 | 9.0 | 0.00 | 0.11 | 0.11 | 83 | 1009.8 |
| 20260506223438 | 66 | 206 | 5.0 | 9.0 | 0.00 | 0.11 | 0.11 | 85 | 1009.9 |
| 20260506222935 | 66 | 195 | 5.0 | 11.0 | 0.00 | 0.11 | 0.11 | 85 | 1009.8 |
| 20260506222431 | 66 | 245 | 12.0 | 15.0 | 0.00 | 0.11 | 0.11 | 87 | 1009.7 |
| 20260506221929 | 66 | 235 | 7.0 | 9.0 | 0.00 | 0.11 | 0.11 | 88 | 1009.7 |
| 20260506221426 | 66 | 182 | 5.0 | 7.0 | 0.00 | 0.11 | 0.11 | 90 | 1009.5 |
| 20260506220924 | 67 | 237 | 4.0 | 8.0 | 0.00 | 0.11 | 0.11 | 91 | 1009.4 |
| 20260506220419 | 66 | 195 | 3.0 | 7.0 | 0.00 | 0.11 | 0.11 | 92 | 1009.4 |
| 20260506215915 | 67 | 236 | 9.0 | 10.0 | 0.00 | 0.11 | 0.11 | 92 | 1009.1 |
| 20260506215412 | 67 | 246 | 6.0 | 9.0 | 0.00 | 0.11 | 0.11 | 92 | 1009.1 |
| 20260506214908 | 68 | 230 | 4.0 | 6.0 | 0.00 | 0.11 | 0.11 | 88 | 1009.3 |
| 20260506214405 | 68 | 126 | 4.0 | 6.0 | 0.00 | 0.11 | 0.11 | 84 | 1009.1 |
| 20260506213902 | 68 | 247 | 1.0 | 2.0 | 0.00 | 0.11 | 0.11 | 87 | 1009.1 |
| 20260506213400 | 67 | 255 | 1.0 | 1.0 | 0.00 | 0.11 | 0.11 | 89 | 1009.1 |
| 20260506212857 | 68 | 236 | 1.0 | 2.0 | 0.00 | 0.11 | 0.11 | 89 | 1008.9 |
| 20260506212353 | 68 | 244 | 0.0 | 0.0 | 0.00 | 0.11 | 0.11 | 88 | 1008.9 |
| 20260506211847 | 68 | 307 | 0.0 | 0.0 | 0.00 | 0.11 | 0.11 | 88 | 1008.9 |
| 20260506211344 | 67 | 62 | 0.0 | 0.0 | 0.00 | 0.11 | 0.11 | 88 | 1008.8 |
| 20260506210841 | 67 | 44 | 1.0 | 3.0 | 0.00 | 0.11 | 0.11 | 89 | 1008.5 |
| 20260506210338 | 67 | 13 | 2.0 | 6.0 | 0.00 | 0.11 | 0.11 | 88 | 1008.5 |
| 20260506205836 | 68 | 56 | 4.0 | 6.0 | 0.00 | 0.11 | 0.11 | 88 | 1008.5 |
| 20260506205331 | 67 | 13 | 3.0 | 4.0 | 0.00 | 0.11 | 0.11 | 88 | 1008.5 |
| 20260506204828 | 67 | 321 | 2.0 | 3.0 | 0.00 | 0.11 | 0.11 | 88 | 1008.4 |
| 20260506204326 | 67 | 302 | 1.0 | 2.0 | 0.00 | 0.11 | 0.11 | 90 | 1008.5 |
| 20260506203823 | 67 | 304 | 2.0 | 3.0 | 0.00 | 0.11 | 0.11 | 90 | 1008.4 |
| 20260506203320 | 66 | 329 | 1.0 | 6.0 | 0.00 | 0.11 | 0.11 | 91 | 1008.2 |
| 20260506202817 | 66 | 318 | 2.0 | 3.0 | 0.00 | 0.11 | 0.11 | 92 | 1008.4 |
| 20260506202314 | 66 | 3 | 1.0 | 3.0 | 0.00 | 0.11 | 0.11 | 91 | 1008.3 |
| 20260506201810 | 66 | 355 | 0.0 | 2.0 | 0.00 | 0.11 | 0.11 | 92 | 1008.3 |
| 20260506201308 | 66 | 332 | 1.0 | 2.0 | 0.00 | 0.11 | 0.11 | 92 | 1008.4 |
| 20260506200805 | 66 | 280 | 1.0 | 2.0 | 0.00 | 0.11 | 0.11 | 93 | 1008.4 |
| 20260506200301 | 66 | 326 | 0.0 | 1.0 | 0.00 | 0.11 | 0.11 | 93 | 1008.3 |
| 20260506195757 | 66 | 315 | 0.0 | 2.0 | 0.00 | 0.11 | 0.11 | 93 | 1008.3 |
| 20260506195254 | 65 | 0 | 1.0 | 3.0 | 0.00 | 0.11 | 0.11 | 93 | 1008.1 |
| 20260506194751 | 65 | 26 | 2.0 | 4.0 | 0.00 | 0.11 | 0.11 | 93 | 1008.5 |
| 20260506194247 | 66 | 344 | 2.0 | 4.0 | 0.00 | 0.11 | 0.11 | 92 | 1008.2 |
| 20260506193745 | 66 | 276 | 1.0 | 2.0 | 0.00 | 0.11 | 0.11 | 90 | 1008.4 |
| 20260506193242 | 66 | 324 | 1.0 | 3.0 | 0.00 | 0.11 | 0.11 | 90 | 1008.3 |
| 20260506192738 | 66 | 317 | 2.0 | 2.0 | 0.00 | 0.11 | 0.11 | 89 | 1008.5 |
| 20260506192235 | 66 | 280 | 1.0 | 2.0 | 0.00 | 0.11 | 0.11 | 89 | 1008.5 |
| 20260506191732 | 67 | 257 | 2.0 | 2.0 | 0.00 | 0.11 | 0.11 | 89 | 1008.7 |
| 20260506191228 | 67 | 265 | 3.0 | 3.0 | 0.00 | 0.11 | 0.11 | 88 | 1008.6 |
| 20260506190725 | 67 | 243 | 2.0 | 3.0 | 0.00 | 0.11 | 0.11 | 88 | 1008.6 |
| 20260506190222 | 66 | 269 | 3.0 | 4.0 | 0.00 | 0.11 | 0.11 | 90 | 1008.6 |
| 20260506185719 | 66 | 268 | 2.0 | 4.0 | 0.00 | 0.11 | 0.11 | 92 | 1008.5 |
| 20260506185215 | 66 | 215 | 4.0 | 6.0 | 0.00 | 0.11 | 0.11 | 91 | 1008.6 |
| 20260506184713 | 67 | 245 | 4.0 | 4.0 | 0.00 | 0.11 | 0.11 | 90 | 1008.5 |
| 20260506184210 | 67 | 252 | 2.0 | 3.0 | 0.00 | 0.11 | 0.11 | 88 | 1008.6 |
| 20260506183706 | 67 | 261 | 2.0 | 3.0 | 0.00 | 0.11 | 0.11 | 88 | 1008.8 |
| 20260506183202 | 67 | 335 | 0.0 | 1.0 | 0.00 | 0.11 | 0.11 | 88 | 1008.5 |
| 20260506182700 | 66 | 344 | 1.0 | 2.0 | 0.00 | 0.11 | 0.11 | 90 | 1008.7 |
| 20260506182157 | 66 | 318 | 1.0 | 2.0 | 0.00 | 0.11 | 0.11 | 90 | 1008.8 |
| 20260506181655 | 65 | 318 | 1.0 | 2.0 | 0.00 | 0.11 | 0.11 | 92 | 1008.6 |
| 20260506181152 | 65 | 349 | 1.0 | 2.0 | 0.00 | 0.11 | 0.11 | 91 | 1008.8 |
| 20260506180649 | 65 | 2 | 1.0 | 2.0 | 0.00 | 0.11 | 0.11 | 91 | 1008.8 |
| 20260506180145 | 65 | 0 | 0.0 | 1.0 | 0.00 | 0.11 | 0.11 | 90 | 1008.8 |
| 20260506175642 | 65 | 38 | 1.0 | 1.0 | 0.00 | 0.11 | 0.11 | 89 | 1008.9 |
| 20260506175139 | 66 | 43 | 0.0 | 3.0 | 0.00 | 0.11 | 0.11 | 88 | 1008.8 |
| 20260506174637 | 67 | 334 | 1.0 | 3.0 | 0.00 | 0.11 | 0.11 | 86 | 1008.7 |
| 20260506174134 | 67 | 41 | 0.0 | 1.0 | 0.00 | 0.11 | 0.11 | 85 | 1008.8 |
| 20260506173631 | 67 | 35 | 2.0 | 4.0 | 0.00 | 0.11 | 0.11 | 85 | 1008.7 |
| 20260506173127 | 67 | 73 | 2.0 | 4.0 | 0.00 | 0.11 | 0.11 | 82 | 1008.7 |
| 20260506172625 | 67 | 65 | 1.0 | 4.0 | 0.00 | 0.11 | 0.11 | 81 | 1008.8 |
| 20260506172121 | 67 | 68 | 4.0 | 8.0 | 0.00 | 0.11 | 0.11 | 81 | 1008.8 |